... the user friendly GPS tool


Thread Rating:
  • 0 Vote(s) - 0 Average
  • 1
  • 2
  • 3
  • 4
  • 5
Fehlende Positionen in RouteConverter (gleiche Position / unterschiedliche Zeit)
#1
Hallo,



ich konnte mein Problem inzwischen mit GPSBabel lösen, mich würde aber trotzdem interessieren, ob es Einstellungen in RouteConverter gibt, die das Löschen von Positionen verhindern (bei gleicher Position, aber unterschiedlicher Zeit). Ich habe nichts gefunden.



Hintergrund: Ich habe bisher meine Bilder immer unmittelbar mit den NMEA-Daten aus dem Tracker georeferenziert. Leider kann die Software (Geosetter) die NMEA-Daten vom ColumbusP10Pro nicht mehr lesen (es gibt da auch signifikante Unterschiede  z. B. zum ColumbusP1). (Den Entwickler habe ich auch angeschrieben, bin aber nicht sicher, ob da Feedback kommt, da das Programm seit Langem nicht mehr gepflegt wird (habe aber bisher kein besseres gefunden, um Massen-Bilder zu referenzieren)).




Nun habe ich die NMEA-Daten in RouteConverter eingelesen und in GPX konvertiert. Damit kommt dann GeoSetter auch zurecht – allerdings fehlen sämtliche Positionen (mit der Zeit!), wo sich (vermutlich) keine Änderungen in der Position ergaben. Ich habe keine Ahnung, ob das schon immer so war, da ich ja bisher direkt das Original-Protokoll verwendet habe.




Nach Prüfung im Original-NMEA Protokoll vom Tracker ist dort vom Start bis Ende jede Sekunde eine Aufzeichnung vorhanden. Wo mache ich was falsch? Danke für Feedback.




Beispiel nach Einlesen in RouteConverter (gilt übrigens auch für TimeAlbumPro): (Pause bei einer Motorrad-Tour)





   





Original-NMEA Protokoll vom ColumbusP10Pro: (Ausschnitt 125942 bis 130017)



$GNGGA,125942.00,4943.160970,N,00847.282681,E,1,21,1.0,512.1,M,47.9,M,,*7B
$GNRMC,125943.00,A,4943.161277,N,00847.283554,E,2.1,57.9,120822,,,A,V*09
$GNGGA,125943.00,4943.161277,N,00847.283554,E,1,21,1.0,512.1,M,47.9,M,,*7D
$GNRMC,125944.00,A,4943.161528,N,00847.284204,E,1.5,57.9,120822,,,A,V*01
$GNGGA,125944.00,4943.161528,N,00847.284204,E,1,21,1.0,512.1,M,47.9,M,,*72
$GNRMC,125945.00,A,4943.161528,N,00847.284204,E,0.3,57.9,120822,,,A,V*07
$GNGGA,125945.00,4943.161528,N,00847.284204,E,1,21,1.0,513.1,M,47.9,M,,*72
$GNRMC,125946.00,A,4943.161528,N,00847.284204,E,0.1,57.9,120822,,,A,V*06
$GNGGA,125946.00,4943.161528,N,00847.284204,E,1,21,1.0,513.1,M,47.9,M,,*71
$GNRMC,125947.00,A,4943.161528,N,00847.284204,E,0.0,57.9,120822,,,A,V*06
$GNGGA,125947.00,4943.161528,N,00847.284204,E,1,21,1.0,513.1,M,47.9,M,,*70
$GNRMC,125948.00,A,4943.161528,N,00847.284204,E,0.3,57.9,120822,,,A,V*0A
$GNGGA,125948.00,4943.161528,N,00847.284204,E,1,21,1.0,513.1,M,47.9,M,,*7F
$GNRMC,125949.00,A,4943.161528,N,00847.284204,E,0.1,57.9,120822,,,A,V*09
$GNGGA,125949.00,4943.161528,N,00847.284204,E,1,21,1.0,513.1,M,47.9,M,,*7E
$GNRMC,125950.00,A,4943.161528,N,00847.284204,E,0.1,57.9,120822,,,A,V*01
$GNGGA,125950.00,4943.161528,N,00847.284204,E,1,21,1.0,513.1,M,47.9,M,,*76
$GNRMC,125951.00,A,4943.161528,N,00847.284204,E,0.2,57.9,120822,,,A,V*03
$GNGGA,125951.00,4943.161528,N,00847.284204,E,1,21,1.0,514.1,M,47.9,M,,*70
$GNRMC,125952.00,A,4943.161528,N,00847.284204,E,0.0,57.9,120822,,,A,V*02
$GNGGA,125952.00,4943.161528,N,00847.284204,E,1,20,0.9,514.1,M,47.9,M,,*7A
$GNRMC,125953.00,A,4943.161528,N,00847.284204,E,0.1,57.9,120822,,,A,V*02
$GNGGA,125953.00,4943.161528,N,00847.284204,E,1,21,1.2,514.1,M,47.9,M,,*70
$GNRMC,125954.00,A,4943.161528,N,00847.284204,E,0.1,57.9,120822,,,A,V*05
$GNGGA,125954.00,4943.161528,N,00847.284204,E,1,19,1.0,514.1,M,47.9,M,,*7E
$GNRMC,125955.00,A,4943.161528,N,00847.284204,E,0.1,57.9,120822,,,A,V*04
$GNGGA,125955.00,4943.161528,N,00847.284204,E,1,20,1.0,514.1,M,47.9,M,,*75
$GNRMC,125956.00,A,4943.161528,N,00847.284204,E,0.0,57.9,120822,,,A,V*06
$GNGGA,125956.00,4943.161528,N,00847.284204,E,1,21,1.0,514.1,M,47.9,M,,*77
$GNRMC,125957.00,A,4943.161528,N,00847.284204,E,0.0,57.9,120822,,,A,V*07
$GNGGA,125957.00,4943.161528,N,00847.284204,E,1,21,1.0,514.1,M,47.9,M,,*76
$GNRMC,125958.00,A,4943.161528,N,00847.284204,E,0.0,57.9,120822,,,A,V*08
$GNGGA,125958.00,4943.161528,N,00847.284204,E,1,20,1.0,515.1,M,47.9,M,,*79
$GNRMC,125959.00,A,4943.161528,N,00847.284204,E,0.0,57.9,120822,,,A,V*09
$GNGGA,125959.00,4943.161528,N,00847.284204,E,1,20,1.0,515.1,M,47.9,M,,*78
$GNRMC,130000.00,A,4943.161528,N,00847.284204,E,0.0,57.9,120822,,,A,V*08
$GNGGA,130000.00,4943.161528,N,00847.284204,E,1,20,1.0,515.1,M,47.9,M,,*79
$GNRMC,130001.00,A,4943.161528,N,00847.284204,E,0.0,57.9,120822,,,A,V*09
$GNGGA,130001.00,4943.161528,N,00847.284204,E,1,20,1.0,515.1,M,47.9,M,,*78
$GNRMC,130002.00,A,4943.161528,N,00847.284204,E,0.0,57.9,120822,,,A,V*0A
$GNGGA,130002.00,4943.161528,N,00847.284204,E,1,20,0.9,515.1,M,47.9,M,,*73
$GNRMC,130003.00,A,4943.161528,N,00847.284204,E,0.0,57.9,120822,,,A,V*0B
$GNGGA,130003.00,4943.161528,N,00847.284204,E,1,20,1.0,515.1,M,47.9,M,,*7A
$GNRMC,130004.00,A,4943.161528,N,00847.284204,E,0.0,57.9,120822,,,A,V*0C
$GNGGA,130004.00,4943.161528,N,00847.284204,E,1,20,1.0,515.1,M,47.9,M,,*7D
$GNRMC,130005.00,A,4943.161528,N,00847.284204,E,0.0,57.9,120822,,,A,V*0D
$GNGGA,130005.00,4943.161528,N,00847.284204,E,1,21,1.0,515.1,M,47.9,M,,*7D
$GNRMC,130006.00,A,4943.161528,N,00847.284204,E,0.0,57.9,120822,,,A,V*0E
$GNGGA,130006.00,4943.161528,N,00847.284204,E,1,21,1.0,515.1,M,47.9,M,,*7E
$GNRMC,130007.00,A,4943.161528,N,00847.284204,E,0.0,57.9,120822,,,A,V*0F
$GNGGA,130007.00,4943.161528,N,00847.284204,E,1,21,1.0,515.1,M,47.9,M,,*7F
$GNRMC,130008.00,A,4943.161528,N,00847.284204,E,0.1,57.9,120822,,,A,V*01
$GNGGA,130008.00,4943.161528,N,00847.284204,E,1,19,0.9,515.1,M,47.9,M,,*73
$GNRMC,130009.00,A,4943.161528,N,00847.284204,E,0.0,57.9,120822,,,A,V*01
$GNGGA,130009.00,4943.161528,N,00847.284204,E,1,20,1.0,515.1,M,47.9,M,,*70
$GNRMC,130010.00,A,4943.161528,N,00847.284204,E,0.0,57.9,120822,,,A,V*09
$GNGGA,130010.00,4943.161528,N,00847.284204,E,1,19,1.0,515.1,M,47.9,M,,*72
$GNRMC,130011.00,A,4943.161528,N,00847.284204,E,0.0,57.9,120822,,,A,V*08
$GNGGA,130011.00,4943.161528,N,00847.284204,E,1,19,1.0,515.1,M,47.9,M,,*73
$GNRMC,130012.00,A,4943.161528,N,00847.284204,E,0.1,57.9,120822,,,A,V*0A
$GNGGA,130012.00,4943.161528,N,00847.284204,E,1,21,1.0,515.1,M,47.9,M,,*7B
$GNRMC,130013.00,A,4943.161528,N,00847.284204,E,0.2,57.9,120822,,,A,V*08
$GNGGA,130013.00,4943.161528,N,00847.284204,E,1,21,1.0,515.1,M,47.9,M,,*7A
$GNRMC,130014.00,A,4943.161528,N,00847.284204,E,0.0,57.9,120822,,,A,V*0D
$GNGGA,130014.00,4943.161528,N,00847.284204,E,1,21,1.0,515.1,M,47.9,M,,*7D
$GNRMC,130015.00,A,4943.161528,N,00847.284204,E,0.0,57.9,120822,,,A,V*0C
$GNGGA,130015.00,4943.161528,N,00847.284204,E,1,23,1.0,515.1,M,47.9,M,,*7E
$GNRMC,130016.00,A,4943.161528,N,00847.284204,E,0.0,57.9,120822,,,A,V*0F
$GNGGA,130016.00,4943.161528,N,00847.284204,E,1,22,1.0,516.1,M,47.9,M,,*7F
$GNRMC,130017.00,A,4943.161528,N,00847.284204,E,0.0,57.9,120822,,,A,V*0E
$GNGGA,130017.00,4943.161528,N,00847.284204,E,1,22,1.0,516.1,M,47.9,M,,*7E
Reply


Messages In This Thread
Fehlende Positionen in RouteConverter (gleiche Position / unterschiedliche Zeit) - by tws_snoopy - 13.10.2022, 16:48

Forum Jump:


Users browsing this thread: 1 Guest(s)